Wind_Speed
18 17 15 14 15 14 14 15 14 18 19 19 18 18 18 17 18 19 19 19 19 20 19 19 19 20 20 20 20 20 19 18 17 15 15 15 15 16 16 18 20 22 23 26
18 16 15 15 15 13 13 14 13 17 16 14 14 14 15 16 17 17 17 18 18 18 18 18 19 19 20 20 20 20 19 18 17 15 14 14 14 15 15 16 17 19 21 23
16 15 14 14 14 13 13 13 13 14 14 13 12 12 13 14 15 15 16 17 17 17 17 18 19 19 20 20 20 20 19 18 17 15 15 14 14 14 14 15 15 17 18 20
18 16 14 14 14 13 13 12 11 10 10 10 11 11 13 15 15 15 15 15 16 16 17 18 18 19 20 20 20 20 20 19 18 17 16 15 14 14 13 14 14 15 16 17
18 15 14 14 14 12 12 9 8 7 7 7 8 10 13 14 15 15 15 15 15 15 16 17 18 19 20 20 20 20 20 20 19 19 18 16 15 14 13 13 14 14 15 15
16 13 13 14 11 10 9 7 5 4 5 6 7 9 11 13 14 14 14 14 14 15 16 16 17 18 19 20 21 21 21 21 20 20 19 18 17 16 15 14 14 13 14 14
13 13 12 11 11 9 7 6 3 3 6 7 7 8 9 11 12 12 13 13 14 15 15 16 17 18 19 20 21 21 22 22 21 21 21 20 19 18 17 16 15 14 13 13
8 10 10 10 9 8 7 6 5 5 3 6 6 7 8 9 10 11 12 13 14 14 15 16 17 18 19 19 21 22 22 23 23 22 22 21 20 20 19 18 17 15 14 14
9 12 8 9 9 8 7 6 5 5 4 1 7 7 6 8 8 10 11 12 13 14 15 16 16 17 18 19 20 21 22 23 23 23 23 22 22 21 21 20 19 17 16 15
12 12 8 8 8 8 7 6 6 6 5 3 6 7 7 7 8 9 11 12 13 14 15 15 16 17 18 19 20 21 22 23 23 24 24 24 23 22 21 21 21 19 17 15
12 8 7 7 8 7 7 6 6 5 4 5 4 4 5 6 7 9 10 11 12 13 14 15 16 17 18 18 19 21 22 23 24 24 24 24 25 24 23 22 21 21 19 17
12 10 7 6 6 7 7 6 6 5 5 3 2 2 4 5 7 8 9 10 11 13 14 15 15 16 17 18 19 20 21 22 23 24 24 24 25 25 25 24 23 22 21 19
13 12 9 5 7 8 7 7 6 5 4 2 2 2 2 4 6 7 8 10 11 12 13 14 15 16 17 18 19 20 21 22 22 23 24 24 24 25 26 26 25 24 23 22
12 13 12 10 9 9 8 7 6 5 4 3 2 2 2 4 5 6 8 9 11 12 13 14 15 16 17 18 19 20 20 21 22 22 23 23 24 25 26 26 26 25 24 23
12 12 12 10 8 8 8 7 6 5 4 2 2 1 2 4 5 7 8 10 11 12 13 14 15 16 17 17 18 19 20 21 21 21 22 22 23 24 25 25 25 25 25 24
12 12 11 9 8 8 8 7 6 5 4 3 2 1 2 4 5 7 8 10 11 12 13 14 15 16 17 17 18 19 20 20 21 21 21 22 22 23 24 24 25 25 25 24
12 12 11 10 9 8 8 7 6 5 4 3 3 3 3 5 6 8 9 10 11 13 14 15 16 17 17 18 19 19 19 20 20 21 21 21 21 22 23 23 24 24 24 24
12 12 11 10 9 8 7 7 6 6 5 4 4 4 5 6 7 9 10 11 12 13 14 15 16 17 18 18 19 19 19 20 20 20 21 21 21 21 22 22 23 23 23 23
12 12 11 11 10 8 8 7 7 7 6 6 6 6 7 8 9 10 11 12 12 14 14 15 16 17 18 18 19 19 19 19 20 20 20 20 20 20 21 21 21 22 22 22
13 13 12 12 11 10 9 9 9 8 8 8 8 9 10 10 11 11 12 13 14 14 15 16 17 18 18 19 19 19 19 19 20 20 20 20 20 20 20 20 20 20 21 20
15 15 14 14 14 13 10 11 11 11 9 10 11 11 12 13 13 14 14 14 15 16 16 17 18 18 19 20 20 20 20 20 20 20 20 20 20 20 20 20 20 20 20 20
17 17 16 17 16 15 12 14 14 13 13 13 14 14 14 15 15 15 16 16 16 17 18 18 19 19 20 20 21 21 21 21 21 21 21 21 21 21 20 20 20 20 20 19
20 19 19 19 18 16 16 17 17 17 16 16 16 16 17 17 17 17 17 17 18 18 19 19 20 21 21 22 22 23 23 23 23 23 23 22 22 22 21 21 20 20 20 19
23 23 22 22 21 20 20 20 20 20 19 19 19 19 19 19 18 18 18 19 19 20 20 21 22 22 23 24 24 25 25 25 25 24 24 24 23 23 22 22 21 21 20 20
26 25 25 25 24 23 23 23 23 23 22 22 21 21 21 21 20 20 20 21 21 22 22 23 24 25 25 26 27 27 27 27 27 26 26 25 25 24 24 24 23 23 22 22
28 28 28 27 27 26 25 25 25 25 25 24 24 23 23 23 23 22 23 23 23 24 25 25 26 27 28 29 29 29 28 28 28 28 28 27 27 26 25 25 25 24 24 24
Wind_Direction
236 241 249 256 259 259 271 285 292 295 310 316 320 323 328 337 337 336 337 339 342 344 345 346 347 346 345 345 344 343 340 337 332 323 314 307 301 296 290 282 274 268 264 262
233 239 245 253 261 266 278 286 289 294 308 315 319 324 330 338 341 342 343 345 347 349 350 352 353 353 354 354 352 350 348 344 341 335 327 318 311 306 300 291 284 276 270 265
229 235 244 254 268 276 281 283 291 299 309 317 325 336 342 347 347 347 348 350 352 355 357 358 358 359 360 0 359 359 358 356 354 349 343 335 326 317 309 299 291 286 279 272
223 227 235 247 257 264 270 285 293 300 312 326 340 342 345 350 353 354 355 357 0 3 3 4 5 6 5 6 6 6 6 6 5 0 354 349 342 332 323 313 302 294 286 279
224 228 235 243 252 262 271 285 291 305 318 334 346 346 340 351 356 358 0 2 4 6 6 7 10 10 10 11 11 10 10 11 11 9 5 359 354 346 337 327 316 304 294 286
220 230 234 243 253 262 268 270 280 309 342 355 343 337 335 350 356 359 2 5 8 9 10 12 14 15 16 17 16 16 15 14 13 12 10 7 3 357 349 340 330 317 305 295
220 231 238 247 254 254 250 251 242 355 359 333 327 332 343 352 357 1 5 9 12 13 15 16 16 18 20 20 20 20 19 17 15 13 11 9 6 3 357 350 341 330 319 307
234 245 240 245 251 247 237 233 221 179 217 287 319 336 350 357 2 7 11 14 16 18 19 20 21 21 21 21 21 20 19 17 16 14 12 10 8 5 1 357 351 341 330 319
204 246 244 243 241 235 227 221 218 205 189 260 318 340 2 360 8 11 13 16 18 19 20 21 22 22 21 20 19 18 17 17 16 15 13 12 10 8 5 1 357 350 341 332
199 229 233 238 230 222 222 215 205 202 183 160 300 326 359 6 7 8 11 15 17 19 19 20 20 19 18 18 17 17 16 16 15 15 14 14 12 9 8 6 3 358 351 344
204 227 230 225 224 217 208 204 200 198 188 175 232 319 350 1 3 5 8 10 13 14 15 16 16 16 16 15 15 15 15 15 15 15 15 15 15 13 11 9 7 5 1 355
210 207 218 209 208 209 206 202 196 197 190 203 264 348 342 358 360 2 5 6 8 9 10 10 11 11 12 12 12 12 12 12 13 13 14 14 14 14 13 11 9 9 8 4
207 201 188 207 210 206 202 198 196 195 200 212 273 348 338 354 356 0 3 3 4 5 5 6 6 7 7 8 9 9 10 11 12 13 14 15 15 16 17 16 16 14 13 11
201 197 191 203 213 199 198 197 195 199 210 215 260 320 342 353 357 360 1 1 0 1 2 2 3 4 4 5 6 6 7 9 10 11 13 14 15 16 17 18 19 19 19 18
198 197 200 207 203 196 198 198 197 202 209 225 246 308 343 351 354 355 355 356 357 359 359 0 1 1 1 2 3 4 5 6 7 9 10 12 13 14 16 17 18 19 20 21
200 202 203 202 199 200 199 199 203 210 217 225 243 295 330 341 345 348 349 351 353 354 356 357 358 358 358 359 359 1 2 4 5 6 7 9 10 11 13 14 16 18 19 20
201 203 202 201 202 200 199 202 207 212 216 231 259 293 316 327 334 338 342 345 348 350 352 353 355 355 356 356 357 358 359 1 2 3 4 5 7 8 10 11 13 15 17 19
203 203 203 203 206 209 199 206 214 220 231 249 270 290 304 314 322 328 333 338 341 343 345 347 349 350 351 353 354 355 356 356 357 358 360 1 2 4 6 8 10 12 14 16
207 210 211 212 216 218 209 218 230 237 244 258 272 285 296 304 312 318 323 327 330 334 337 339 341 343 345 346 347 348 350 351 352 353 354 356 358 359 1 3 5 7 9 11
216 220 223 226 230 234 220 228 240 247 252 263 274 284 292 299 306 311 314 318 322 326 329 331 334 336 338 340 341 342 343 345 346 347 348 350 352 354 356 357 359 1 3 5
223 227 231 235 239 241 233 241 249 255 262 267 274 282 289 295 301 305 309 312 316 318 321 324 327 329 331 333 335 336 337 338 338 340 342 343 345 346 348 350 352 354 356 358
230 233 236 240 243 245 243 250 256 263 266 270 276 281 286 291 296 300 304 307 310 312 315 318 321 323 326 328 329 330 330 331 332 333 334 335 337 339 340 341 344 346 348 350
238 239 242 244 248 251 251 255 259 263 267 271 276 279 283 287 291 295 299 302 305 308 311 314 317 319 321 323 324 325 325 324 325 326 327 328 329 331 332 334 335 337 338 340
242 242 245 249 251 253 255 257 260 264 268 271 274 277 281 284 288 292 295 299 302 305 307 310 312 314 316 318 320 320 319 319 319 320 321 322 322 323 324 325 326 328 329 331
245 246 248 251 253 255 256 259 261 264 267 270 273 276 279 283 286 289 292 295 299 301 304 306 308 310 312 314 316 316 316 315 315 316 316 316 317 317 319 319 320 320 321 322
249 250 251 253 254 255 257 260 262 265 267 269 272 275 278 281 284 287 290 293 296 298 301 303 305 307 308 311 312 312 312 312 312 312 312 312 312 313 313 314 314 315 315 315
Height
5876 5879 5880 5881 5882 5882 5882 5881 5881 5880 5877 5876 5874 5871 5868 5865 5862 5859 5855 5852 5848 5844 5841 5837 5833 5829 5825 5820 5816 5812 5808 5804 5801 5798 5796 5795 5794 5793 5793 5792 5792 5793 5794 5795
5873 5875 5878 5878 5878 5878 5879 5879 5879 5878 5876 5875 5872 5870 5867 5864 5861 5858 5855 5851 5847 5844 5840 5836 5832 5828 5824 5820 5815 5811 5806 5802 5799 5796 5794 5793 5791 5790 5789 5788 5788 5788 5788 5788
5870 5874 5874 5876 5876 5877 5878 5877 5877 5876 5874 5873 5871 5869 5866 5863 5861 5858 5854 5851 5847 5844 5840 5836 5832 5828 5824 5819 5815 5810 5806 5802 5798 5795 5793 5791 5789 5787 5786 5785 5784 5783 5783 5783
5867 5870 5873 5874 5875 5876 5875 5875 5875 5874 5873 5871 5870 5868 5865 5862 5860 5857 5854 5851 5847 5844 5840 5836 5832 5828 5824 5820 5815 5811 5807 5803 5799 5795 5792 5790 5787 5785 5783 5782 5780 5779 5778 5778
5864 5868 5871 5872 5873 5873 5873 5874 5873 5872 5871 5870 5869 5868 5866 5862 5860 5857 5854 5851 5848 5844 5841 5837 5833 5829 5825 5820 5816 5812 5808 5804 5800 5796 5793 5789 5786 5784 5782 5779 5777 5776 5775 5774
5863 5866 5868 5869 5871 5871 5872 5872 5872 5871 5870 5870 5869 5869 5866 5863 5860 5857 5855 5851 5848 5845 5841 5838 5834 5830 5826 5822 5818 5813 5809 5805 5801 5797 5793 5790 5786 5783 5780 5778 5775 5773 5771 5770
5862 5864 5866 5868 5869 5869 5870 5871 5871 5870 5870 5871 5869 5868 5867 5863 5861 5858 5855 5852 5849 5846 5842 5839 5835 5831 5827 5823 5819 5815 5811 5807 5802 5798 5794 5790 5786 5783 5779 5776 5774 5771 5769 5767
5862 5863 5865 5866 5867 5867 5868 5869 5870 5870 5872 5871 5869 5867 5866 5864 5861 5859 5856 5853 5850 5847 5843 5840 5836 5833 5829 5825 5821 5817 5813 5808 5804 5799 5795 5791 5786 5783 5779 5775 5772 5769 5766 5764
5861 5862 5863 5864 5865 5866 5867 5867 5868 5869 5869 5869 5869 5867 5866 5864 5862 5859 5857 5854 5851 5848 5844 5841 5838 5834 5831 5827 5823 5819 5814 5810 5805 5801 5796 5792 5787 5783 5779 5775 5771 5767 5764 5761
5858 5859 5862 5863 5864 5865 5866 5866 5867 5868 5867 5869 5869 5867 5865 5864 5862 5860 5857 5855 5852 5849 5846 5842 5839 5836 5832 5828 5824 5820 5816 5812 5807 5802 5798 5793 5788 5783 5779 5775 5770 5766 5762 5759
5857 5859 5861 5862 5863 5864 5865 5866 5866 5867 5867 5867 5867 5868 5865 5864 5862 5860 5858 5855 5853 5850 5847 5844 5840 5837 5833 5830 5826 5822 5818 5813 5809 5804 5799 5794 5789 5784 5780 5775 5770 5766 5761 5757
5856 5858 5859 5861 5862 5863 5864 5865 5866 5866 5866 5866 5866 5869 5864 5863 5862 5860 5858 5856 5853 5850 5848 5844 5841 5838 5834 5831 5827 5823 5819 5815 5810 5805 5801 5796 5791 5786 5781 5776 5771 5766 5761 5757
5855 5858 5860 5861 5863 5863 5863 5864 5865 5866 5866 5866 5865 5868 5864 5863 5862 5860 5858 5856 5854 5851 5848 5845 5842 5839 5835 5832 5828 5824 5820 5816 5811 5807 5802 5797 5793 5788 5783 5777 5772 5767 5762 5757
5854 5856 5858 5860 5859 5861 5862 5863 5864 5865 5865 5865 5865 5865 5864 5863 5861 5860 5858 5856 5854 5851 5848 5846 5842 5839 5836 5832 5829 5825 5821 5817 5812 5808 5804 5799 5795 5790 5785 5779 5774 5769 5764 5759
5853 5855 5856 5858 5859 5860 5862 5863 5863 5864 5864 5865 5864 5864 5863 5862 5861 5860 5858 5856 5854 5851 5849 5846 5843 5839 5836 5833 5829 5825 5821 5817 5813 5809 5805 5800 5796 5791 5787 5782 5777 5772 5767 5762
5852 5854 5856 5857 5858 5859 5861 5862 5863 5863 5863 5864 5864 5864 5863 5862 5861 5859 5858 5856 5853 5851 5848 5846 5843 5839 5836 5833 5829 5826 5822 5818 5814 5810 5806 5802 5797 5793 5788 5784 5779 5774 5769 5764
5851 5853 5855 5856 5857 5859 5860 5861 5862 5862 5863 5863 5863 5863 5862 5861 5860 5858 5857 5855 5853 5850 5848 5845 5842 5839 5836 5833 5829 5826 5822 5818 5814 5810 5806 5802 5798 5794 5790 5785 5781 5776 5772 5767
5851 5852 5854 5855 5857 5858 5861 5860 5861 5861 5862 5862 5862 5861 5861 5860 5859 5857 5855 5854 5852 5849 5847 5844 5841 5838 5835 5832 5829 5825 5821 5818 5814 5810 5806 5802 5799 5795 5790 5786 5782 5778 5774 5769
5850 5851 5853 5854 5855 5856 5858 5859 5859 5860 5860 5860 5860 5860 5859 5858 5857 5856 5854 5852 5850 5848 5845 5843 5840 5837 5834 5831 5828 5824 5821 5817 5814 5810 5806 5802 5799 5795 5791 5787 5783 5779 5775 5771
5848 5850 5852 5853 5853 5855 5857 5857 5857 5858 5858 5858 5858 5857 5856 5855 5855 5854 5852 5850 5848 5846 5843 5841 5838 5836 5833 5830 5826 5823 5820 5816 5813 5809 5806 5802 5798 5795 5791 5787 5784 5780 5776 5772
5846 5847 5849 5850 5850 5852 5854 5854 5854 5856 5857 5856 5855 5854 5854 5853 5852 5851 5849 5847 5845 5843 5841 5839 5836 5833 5831 5828 5824 5821 5818 5815 5811 5808 5804 5801 5797 5794 5790 5787 5783 5780 5776 5773
5843 5844 5846 5846 5847 5851 5850 5850 5851 5852 5852 5852 5851 5851 5850 5849 5848 5847 5845 5844 5842 5840 5838 5836 5833 5831 5828 5825 5822 5819 5815 5812 5809 5805 5802 5799 5796 5793 5789 5786 5783 5779 5776 5773
5839 5841 5842 5843 5846 5846 5846 5847 5847 5847 5847 5847 5847 5847 5846 5845 5844 5843 5841 5840 5838 5836 5834 5832 5830 5827 5824 5822 5819 5816 5812 5809 5806 5803 5799 5796 5793 5790 5787 5784 5781 5778 5775 5772
5834 5835 5837 5838 5839 5840 5841 5841 5842 5842 5843 5843 5842 5842 5841 5840 5839 5838 5837 5836 5834 5832 5830 5828 5826 5823 5820 5818 5815 5811 5808 5805 5802 5799 5796 5793 5790 5787 5784 5781 5778 5775 5772 5770
5828 5830 5831 5832 5833 5834 5835 5836 5836 5837 5837 5837 5837 5836 5836 5835 5834 5833 5832 5831 5829 5827 5825 5823 5821 5818 5815 5813 5810 5807 5803 5800 5797 5794 5791 5789 5786 5783 5780 5777 5774 5772 5769 5766
5822 5823 5825 5826 5827 5828 5829 5829 5830 5830 5830 5831 5831 5830 5830 5829 5828 5827 5826 5825 5823 5822 5820 5817 5815 5812 5809 5807 5804 5801 5797 5794 5791 5788 5785 5783 5780 5777 5775 5773 5770 5767 5764 5762